Terug naar catalogus

BREEZE-M R/B

ActiefHEO
NORAD 28660·ROCKET BODY·🇷🇺 Russia

Gelanceerd May 22, 2005 vanaf Baikonur Cosmodrome

Loading…

Volgende Passages (komende 24 uur)

TLE

VersSource: Space-Track

Epoch: Sep 14, 2026, 14:17 UTC

1 28660U 05019B   26257.59564110 -.00000129  00000-0  00000-0 0  9993
2 28660   9.8012 117.1368 3290521  45.2938 123.8952  1.54369560119925

Volg BREEZE-M R/B in realtime met AllMySat

Download on the App Store